Weather History for McCook, NE

Change the Weather History Date:

Monday, January 20, 2014

  Actual Average Record
Temperature  
Mean Temperature 35 °F 27 °F  
Max Temperature 52 °F 41 °F 71 °F (1964)
Min Temperature 17 °F 14 °F -16 °F (1984)
Degree Days  
Heating Degree Days 30    
Moisture  
Dew Point 15 °F    
Average Humidity 47    
Maximum Humidity 71    
Minimum Humidity 23    
Precipitation  
Precipitation 0.00 in 0.02 in 1.27 in (1990)
Month to date precipitation 0.01 0.33  
Year to date precipitation 0.01 0.33  
Sea Level Pressure  
Sea Level Pressure 30.21 in    
Wind  
Wind Speed 14 mph (NNW)    
Max Wind Speed 34 mph    
Max Gust Speed 43 mph    
Visibility 10 miles    
Events      
T = Trace of Precipitation, MM = Missing Value Source: NWS Daily Summary

Daily Weather History Graph

Daily Weather History Graph

Search for Another Location

Airport:

Trip Planner

Search our weather history database for the weather conditions in past years. The results will help you decide how hot, cold, wet, or windy it might be!

Date:

Astronomy

Jan. 20, 2014 Rise Set
Actual Time 8:00 AM CST 5:46 PM CST
Civil Twilight 7:30 AM CST 6:16 PM CST
Nautical Twilight 6:57 AM CST 6:49 PM CST
Astronomical Twilight 6:25 AM CST 7:21 PM CST
Moon 10:23 PM CST 10:00 AM CST
Length of Visible Light 10h 45m
Length of Day
9h 46m
Waning Gibbous, 82% of the Moon is Illuminated
Jan 20
Waning Gibbous
Jan 23
Last Quarter
Jan 30
New
Feb 6
First Quarter
Feb 14
Full

Hourly Weather History & Observations

Time (CST) Temp. Windchill Dew Point Humidity Pressure Visibility Wind Dir Wind Speed Gust Speed Precip Events Conditions
12:53 AM 30.0 °F 20.5 °F 12.9 °F 49% 29.91 in 10.0 mi WSW 11.5 mph - N/A   Clear
1:53 AM 30.0 °F 20.5 °F 12.9 °F 49% 29.90 in 10.0 mi West 11.5 mph - N/A   Clear
2:53 AM 26.1 °F 19.4 °F 12.9 °F 58% 29.92 in 10.0 mi West 5.8 mph - N/A   Clear
3:53 AM 28.0 °F 19.3 °F 12.9 °F 53% 29.93 in 10.0 mi West 9.2 mph - N/A   Clear
4:53 AM 28.0 °F 18.1 °F 15.1 °F 58% 29.97 in 10.0 mi WNW 11.5 mph - N/A   Clear
5:53 AM 35.1 °F 25.5 °F 18.0 °F 50% 29.99 in 10.0 mi NNW 15.0 mph - N/A   Clear
6:53 AM 33.1 °F 22.2 °F 19.0 °F 56% 30.08 in 10.0 mi North 17.3 mph - N/A   Clear
7:53 AM 32.0 °F 21.2 °F 18.0 °F 56% 30.15 in 10.0 mi NNW 16.1 mph - N/A   Clear
8:53 AM 35.1 °F 27.4 °F 19.0 °F 52% 30.18 in 10.0 mi NNW 10.4 mph - N/A   Clear
9:53 AM 37.9 °F 29.6 °F 19.0 °F 47% 30.21 in 10.0 mi NNW 13.8 mph - N/A   Partly Cloudy
10:53 AM 45.0 °F 38.9 °F 19.0 °F 36% 30.24 in 10.0 mi WNW 12.7 mph - N/A   Overcast
11:53 AM 48.0 °F - 17.1 °F 29% 30.23 in 10.0 mi NW 20.7 mph 26.5 mph N/A   Clear
12:53 PM 50.0 °F - 14.0 °F 24% 30.21 in 10.0 mi NNW 33.4 mph 41.4 mph N/A   Clear
1:53 PM 51.1 °F - 14.0 °F 23% 30.20 in 10.0 mi NNW 27.6 mph 39.1 mph N/A   Clear
2:53 PM 50.0 °F - 14.0 °F 24% 30.22 in 10.0 mi NNW 34.5 mph 42.6 mph N/A   Clear
3:53 PM 48.9 °F - 14.0 °F 25% 30.25 in 10.0 mi NNW 26.5 mph 34.5 mph N/A   Clear
4:53 PM 46.0 °F 37.6 °F 12.9 °F 26% 30.30 in 10.0 mi NNW 24.2 mph 31.1 mph N/A   Clear
5:53 PM 41.0 °F 32.5 °F 15.1 °F 35% 30.32 in 10.0 mi North 17.3 mph - N/A   Clear
6:53 PM 36.0 °F 26.7 °F 17.1 °F 46% 30.37 in 10.0 mi North 15.0 mph - N/A   Clear
7:53 PM 30.0 °F 20.5 °F 17.1 °F 59% 30.42 in 10.0 mi North 11.5 mph - N/A   Clear
8:53 PM 26.1 °F 16.8 °F 15.1 °F 63% 30.45 in 10.0 mi North 9.2 mph - N/A   Clear
9:53 PM 21.9 °F 14.5 °F 12.9 °F 68% 30.48 in 10.0 mi North 5.8 mph - N/A   Clear
10:53 PM 19.9 °F 10.1 °F 12.0 °F 71% 30.50 in 10.0 mi NNE 8.1 mph - N/A   Clear
11:53 PM 19.0 °F 13.9 °F 10.9 °F 71% 30.51 in 10.0 mi NE 3.5 mph - N/A   Clear